Regional Weather Roundup
Issued by NWS

Home | Current Version | Previous Version | Text Only | Print | Product List | Glossary On
Versions: 1 2 3 4 5 6 7 8 9 10 11 12 13 14 15 16 17 18 19 20 21 22 23 24 25 26 27
000
ASUS44 KBMX 240210
RWRAL

ALABAMA REGIONAL WEATHER ROUNDUP
NATIONAL WEATHER SERVICE BIRMINGHAM AL
800 PM CST THU FEB 23 2017

NOTE: "FAIR" INDICATES FEW OR NO CLOUDS BELOW 12,000 FEET
WITH NO SIGNIFICANT WEATHER AND/OR OBSTRUCTIONS TO VISIBILITY.

THE REMARK "TC" DENOTES TEMPERATURE IN DEGREES CELSIUS.

ALZ001>011-014-016>018-020-240300-
NORTH ALABAMA

CITY           SKY/WX    TMP DP  RH WIND       PRES   REMARKS
MUSCLE SHOALS  CLEAR     63  55  75 SE8       29.78S
HUNTSVILLE     CLEAR     62  56  80 S7        29.80R
DECATUR        CLEAR     60  56  86 S7        29.80R
HALEYVILLE     FAIR      63  57  81 S8        29.81S
GADSDEN        CLEAR     60  56  86 CALM      29.83R
$$

ALZ012-013-022-023-030>036-040>044-240300-
WEST CENTRAL ALABAMA

CITY           SKY/WX    TMP DP  RH WIND       PRES   REMARKS
TUSCALOOSA     CLEAR     65  57  75 CALM      29.79S
$$

ALZ015-024>027-033>036-040>044-240300-
CENTRAL ALABAMA

CITY           SKY/WX    TMP DP  RH WIND       PRES   REMARKS
BIRMINGHAM     CLEAR     64  57  78 SE5       29.83S
MONTGOMERY     CLEAR     67  56  67 E6        29.81S
SHELBY CO ARPT CLEAR     62  59  90 CALM      29.82R
MAXWELL AFB    CLEAR     64  59  83 CALM      29.81R
GREENVILLE     FAIR      62  57  83 CALM      29.82R
$$

ALZ019-021-028-029-037-038-045>048-240300-
EAST CENTRAL ALABAMA

CITY           SKY/WX    TMP DP  RH WIND       PRES   REMARKS
ANNISTON       CLEAR     61  57  87 CALM      29.83R
ALEXANDER CITY CLEAR     59  57  93 CALM      29.84R
AUBURN         MOCLDY    66  57  72 CALM      29.86R
$$

ALZ051>064-240300-
SOUTHWEST ALABAMA

CITY           SKY/WX    TMP DP  RH WIND       PRES   REMARKS
MOBILE         CLEAR     62  58  86 CALM      29.83R
BROOKLEY FIELD CLEAR     64  62  93 CALM      29.84R
EVERGREEN      CLEAR     63  58  83 CALM      29.82R
$$

ALZ049-050-065>069-240300-
SOUTHEAST ALABAMA

CITY           SKY/WX    TMP DP  RH WIND       PRES   REMARKS
DOTHAN         CLEAR     63  61  93 CALM      29.86R
OZARK          CLEAR     64  57  79 CALM      29.82R
TROY           CLEAR     62  59  90 CALM      29.83R
EUFAULA        FAIR      62  58  86 CALM      29.82R
$$




USA.gov is the U.S. government's official web portal to all federal, state and local government web resources and services.